Location: Unspecified
(40.1328°N, 0.0000°E)
Time: 03:17:45
(UTC+00:00)

NOAA 16 DEB - Visible Passes

Search period start: 04 April 2026 00:00
Search period end: 14 April 2026 00:00
Orbit: 705 x 721 km, 98.8° (Epoch: 29 March)

Date Brightness Start Highest point End Pass type
(mag) Time Alt. Az. Time Alt. Az. Time Alt. Az.
4 Apr ? 01:26:55 15° NNE 01:26:55 15° NNE 01:28:09 10° NNE visible
4 Apr ? 03:06:00 13° NNW 03:06:00 13° NNW 03:06:36 10° NNW visible
5 Apr ? 02:13:07 21° N 02:13:07 21° N 02:14:44 10° N visible
6 Apr ? 01:20:12 15° NE 01:20:12 15° NE 01:21:39 10° NNE visible
6 Apr ? 02:59:17 17° NNW 02:59:17 17° NNW 03:00:24 10° NNW visible
7 Apr ? 02:06:21 24° N 02:06:21 24° N 02:08:21 10° N visible
8 Apr ? 01:13:24 15° NE 01:13:24 15° NE 01:14:59 10° NNE visible
8 Apr ? 02:52:27 21° NNW 02:52:27 21° NNW 02:54:06 10° NNW visible
9 Apr ? 01:59:29 27° NNE 01:59:29 27° NNE 02:01:51 10° N visible
9 Apr ? 03:38:33 11° NW 03:38:33 11° NW 03:38:44 10° NW visible
10 Apr ? 01:06:27 14° NE 01:06:27 14° NE 01:08:09 10° NNE visible
10 Apr ? 02:45:32 26° NNW 02:45:32 26° NNW 02:47:40 10° NNW visible
11 Apr ? 01:52:30 28° NNE 01:52:30 28° NNE 01:55:13 10° N visible
11 Apr ? 03:31:35 14° NW 03:31:35 14° NW 03:32:30 10° NW visible
12 Apr ? 00:59:26 12° NE 00:59:26 12° NE 01:01:02 10° NE visible
12 Apr ? 02:38:31 32° NNW 02:38:31 32° NNW 02:41:07 10° NNW visible
13 Apr ? 01:45:25 28° NE 01:45:25 28° NE 01:48:27 10° N visible
13 Apr ? 03:24:29 18° NW 03:24:29 18° NW 03:26:05 10° NW visible
